Location: Nelson
(41.2830°S, 173.2830°E)
Time: 18:53:06
(UTC+13:00)

Cosmos 2219 Rocket - Pass Details

Date: 24 January 2019
Orbit: 829 x 845 km, 71.0° (Epoch: 19 February)

Event Time Altitude Azimuth Distance (km) Brightness Sun altitude
Exits shadow 23:36:28 53° 50° (NE) 1,039 2.2 -23.2°
Maximum altitude 23:37:01 55° 72° (ENE) 1,016 2.3 -23.2°
Drops below altitude 10° 23:42:36 10° 148° (SSE) 2,496 5.0 -23.8°
Sets 23:45:07 0° 152° (SSE) 3,440 5.8 -24.0°
